owner,sensor,date,latitude,longitude,vertical_datum,mass_concentration_of_oxygen_in_sea_water,qcFlag 
SCCF RECON,ioos:station:SCCF:56:1,2019-05-01T04:00:00Z,26.4645,-82.1044,1.862,6.78,11111222 
SCCF RECON,ioos:station:SCCF:56:1,2019-05-01T05:00:00Z,26.4645,-82.1044,1.803,6.37,11111222 
SCCF RECON,ioos:station:SCCF:56:1,2019-05-01T06:00:00Z,26.4645,-82.1044,1.692,6.76,11111222 
SCCF RECON,ioos:station:SCCF:56:1,2019-05-01T07:00:00Z,26.4645,-82.1044,1.587,5.72,11111222 
SCCF RECON,ioos:station:SCCF:56:1,2019-05-01T08:00:00Z,26.4645,-82.1044,1.485,4.84,11111222 
SCCF RECON,ioos:station:SCCF:56:1,2019-05-01T09:00:00Z,26.4645,-82.1044,1.411,4.3,11111222 
SCCF RECON,ioos:station:SCCF:56:1,2019-05-01T10:00:00Z,26.4645,-82.1044,1.366,3.67,11111222 
SCCF RECON,ioos:station:SCCF:56:1,2019-05-01T11:00:00Z,26.4645,-82.1044,1.397,3.47,11111222 
SCCF RECON,ioos:station:SCCF:56:1,2019-05-01T12:00:00Z,26.4645,-82.1044,1.496,3.93,11111222 
SCCF RECON,ioos:station:SCCF:56:1,2019-05-01T13:00:00Z,26.4645,-82.1044,1.643,5.45,11111222 
SCCF RECON,ioos:station:SCCF:56:1,2019-05-01T14:00:00Z,26.4645,-82.1044,1.77,6.17,11111222 
SCCF RECON,ioos:station:SCCF:56:1,2019-05-01T15:00:00Z,26.4645,-82.1044,1.862,6.76,11111222 
SCCF RECON,ioos:station:SCCF:56:1,2019-05-01T16:00:00Z,26.4645,-82.1044,1.885,7.01,11111222 
SCCF RECON,ioos:station:SCCF:56:1,2019-05-01T17:00:00Z,26.4645,-82.1044,1.863,7.71,11111222 
SCCF RECON,ioos:station:SCCF:56:1,2019-05-01T18:00:00Z,26.4645,-82.1044,1.764,7.44,11111222 
SCCF RECON,ioos:station:SCCF:56:1,2019-05-01T19:00:00Z,26.4645,-82.1044,1.656,6.63,11111222 
SCCF RECON,ioos:station:SCCF:56:1,2019-05-01T20:00:00Z,26.4645,-82.1044,1.597,6.68,11111222 
SCCF RECON,ioos:station:SCCF:56:1,2019-05-01T21:00:00Z,26.4645,-82.1044,1.459,7.02,11111222 
SCCF RECON,ioos:station:SCCF:56:1,2019-05-01T22:00:00Z,26.4645,-82.1044,1.404,6.87,11111222 
SCCF RECON,ioos:station:SCCF:56:1,2019-05-01T23:00:00Z,26.4645,-82.1044,1.375,8.13,11111222 
SCCF RECON,ioos:station:SCCF:56:1,2019-05-02T04:00:00Z,26.4645,-82.1044,1.831,5.64,11111222 
SCCF RECON,ioos:station:SCCF:56:1,2019-05-02T05:00:00Z,26.4645,-82.1044,1.828,5.43,11111222 
SCCF RECON,ioos:station:SCCF:56:1,2019-05-02T06:00:00Z,26.4645,-82.1044,1.742,5.41,11111222 
SCCF RECON,ioos:station:SCCF:56:1,2019-05-02T07:00:00Z,26.4645,-82.1044,1.64,5.06,11111222 
SCCF RECON,ioos:station:SCCF:56:1,2019-05-02T08:00:00Z,26.4645,-82.1044,1.544,5.09,11111222 
SCCF RECON,ioos:station:SCCF:56:1,2019-05-02T09:00:00Z,26.4645,-82.1044,1.471,4.67,11111222 
SCCF RECON,ioos:station:SCCF:56:1,2019-05-02T10:00:00Z,26.4645,-82.1044,1.408,3.94,11111222 
SCCF RECON,ioos:station:SCCF:56:1,2019-05-02T11:00:00Z,26.4645,-82.1044,1.406,3.91,11111222 
SCCF RECON,ioos:station:SCCF:56:1,2019-05-02T12:00:00Z,26.4645,-82.1044,1.495,3.79,11111222 
SCCF RECON,ioos:station:SCCF:56:1,2019-05-02T13:00:00Z,26.4645,-82.1044,1.638,4.37,11111222 
SCCF RECON,ioos:station:SCCF:56:1,2019-05-02T14:00:00Z,26.4645,-82.1044,1.768,4.76,11111222 
SCCF RECON,ioos:station:SCCF:56:1,2019-05-02T15:00:00Z,26.4645,-82.1044,1.866,6.0,11111222 
SCCF RECON,ioos:station:SCCF:56:1,2019-05-02T16:00:00Z,26.4645,-82.1044,1.933,7.02,11111222 
SCCF RECON,ioos:station:SCCF:56:1,2019-05-02T17:00:00Z,26.4645,-82.1044,1.944,7.76,11111222 
SCCF RECON,ioos:station:SCCF:56:1,2019-05-02T18:00:00Z,26.4645,-82.1044,1.876,7.74,11111222 
SCCF RECON,ioos:station:SCCF:56:1,2019-05-02T19:00:00Z,26.4645,-82.1044,1.752,7.44,11111222 
SCCF RECON,ioos:station:SCCF:56:1,2019-05-02T20:00:00Z,26.4645,-82.1044,1.623,6.81,11111222 
SCCF RECON,ioos:station:SCCF:56:1,2019-05-02T21:00:00Z,26.4645,-82.1044,1.516,6.47,11111222 
SCCF RECON,ioos:station:SCCF:56:1,2019-05-02T22:00:00Z,26.4645,-82.1044,1.426,7.21,11111222 
SCCF RECON,ioos:station:SCCF:56:1,2019-05-02T23:00:00Z,26.4645,-82.1044,1.355,8.22,11111222 
SCCF RECON,ioos:station:SCCF:56:1,2019-05-03T04:00:00Z,26.4645,-82.1044,1.83,6.88,11111222 
SCCF RECON,ioos:station:SCCF:56:1,2019-05-03T05:00:00Z,26.4645,-82.1044,1.892,6.26,11111222 
SCCF RECON,ioos:station:SCCF:56:1,2019-05-03T06:00:00Z,26.4645,-82.1044,1.884,6.18,11111222 
SCCF RECON,ioos:station:SCCF:56:1,2019-05-03T07:00:00Z,26.4645,-82.1044,1.791,5.86,11111222 
SCCF RECON,ioos:station:SCCF:56:1,2019-05-03T08:00:00Z,26.4645,-82.1044,1.711,5.69,11111222 
SCCF RECON,ioos:station:SCCF:56:1,2019-05-03T09:00:00Z,26.4645,-82.1044,1.646,5.44,11111222 
SCCF RECON,ioos:station:SCCF:56:1,2019-05-03T10:00:00Z,26.4645,-82.1044,1.55,5.0,11111222 
SCCF RECON,ioos:station:SCCF:56:1,2019-05-03T11:00:00Z,26.4645,-82.1044,1.476,4.05,11111222 
SCCF RECON,ioos:station:SCCF:56:1,2019-05-03T12:00:00Z,26.4645,-82.1044,1.513,3.7,11111222 
SCCF RECON,ioos:station:SCCF:56:1,2019-05-03T13:00:00Z,26.4645,-82.1044,1.64,3.52,11111222 
SCCF RECON,ioos:station:SCCF:56:1,2019-05-03T14:00:00Z,26.4645,-82.1044,1.785,3.73,11111222 
SCCF RECON,ioos:station:SCCF:56:1,2019-05-03T15:00:00Z,26.4645,-82.1044,1.894,4.72,11111222 
SCCF RECON,ioos:station:SCCF:56:1,2019-05-03T16:00:00Z,26.4645,-82.1044,1.968,5.96,11111222 
SCCF RECON,ioos:station:SCCF:56:1,2019-05-03T17:00:00Z,26.4645,-82.1044,2.002,6.51,11111222 
SCCF RECON,ioos:station:SCCF:56:1,2019-05-03T18:00:00Z,26.4645,-82.1044,1.947,6.51,11111222 
SCCF RECON,ioos:station:SCCF:56:1,2019-05-03T19:00:00Z,26.4645,-82.1044,1.831,6.48,11111222 
SCCF RECON,ioos:station:SCCF:56:1,2019-05-03T20:00:00Z,26.4645,-82.1044,1.698,6.18,11111222 
SCCF RECON,ioos:station:SCCF:56:1,2019-05-03T21:00:00Z,26.4645,-82.1044,1.566,6.07,11111222 
SCCF RECON,ioos:station:SCCF:56:1,2019-05-03T22:00:00Z,26.4645,-82.1044,1.458,6.62,11111222 
SCCF RECON,ioos:station:SCCF:56:1,2019-05-03T23:00:00Z,26.4645,-82.1044,1.365,7.31,11111222 
SCCF RECON,ioos:station:SCCF:56:1,2019-05-04T04:00:00Z,26.4645,-82.1044,1.752,7.47,11111222 
SCCF RECON,ioos:station:SCCF:56:1,2019-05-04T05:00:00Z,26.4645,-82.1044,1.842,6.83,11111222 
SCCF RECON,ioos:station:SCCF:56:1,2019-05-04T06:00:00Z,26.4645,-82.1044,1.891,6.92,11111222 
SCCF RECON,ioos:station:SCCF:56:1,2019-05-04T07:00:00Z,26.4645,-82.1044,1.838,6.76,11111222 
SCCF RECON,ioos:station:SCCF:56:1,2019-05-04T08:00:00Z,26.4645,-82.1044,1.71,6.74,11111222 
SCCF RECON,ioos:station:SCCF:56:1,2019-05-04T09:00:00Z,26.4645,-82.1044,1.604,5.61,11111222 
SCCF RECON,ioos:station:SCCF:56:1,2019-05-04T10:00:00Z,26.4645,-82.1044,1.553,5.12,11111222 
SCCF RECON,ioos:station:SCCF:56:1,2019-05-04T11:00:00Z,26.4645,-82.1044,1.517,4.62,11111222 
SCCF RECON,ioos:station:SCCF:56:1,2019-05-04T12:00:00Z,26.4645,-82.1044,1.495,4.0,11111222 
SCCF RECON,ioos:station:SCCF:56:1,2019-05-04T13:00:00Z,26.4645,-82.1044,1.556,3.75,11111222 
SCCF RECON,ioos:station:SCCF:56:1,2019-05-04T14:00:00Z,26.4645,-82.1044,1.672,4.26,11111222 
SCCF RECON,ioos:station:SCCF:56:1,2019-05-04T15:00:00Z,26.4645,-82.1044,1.795,5.8,11111222 
SCCF RECON,ioos:station:SCCF:56:1,2019-05-04T16:00:00Z,26.4645,-82.1044,1.904,7.06,11111222 
SCCF RECON,ioos:station:SCCF:56:1,2019-05-04T17:00:00Z,26.4645,-82.1044,1.982,8.48,11111222 
SCCF RECON,ioos:station:SCCF:56:1,2019-05-04T18:00:00Z,26.4645,-82.1044,2.01,8.67,11111222 
SCCF RECON,ioos:station:SCCF:56:1,2019-05-04T19:00:00Z,26.4645,-82.1044,1.919,8.6,11111222 
SCCF RECON,ioos:station:SCCF:56:1,2019-05-04T20:00:00Z,26.4645,-82.1044,1.748,7.37,11111222 
SCCF RECON,ioos:station:SCCF:56:1,2019-05-04T21:00:00Z,26.4645,-82.1044,1.595,6.97,11111222 
SCCF RECON,ioos:station:SCCF:56:1,2019-05-04T22:00:00Z,26.4645,-82.1044,1.472,7.25,11111222 
SCCF RECON,ioos:station:SCCF:56:1,2019-05-04T23:00:00Z,26.4645,-82.1044,1.368,7.82,11111222 
SCCF RECON,ioos:station:SCCF:56:1,2019-05-05T04:00:00Z,26.4645,-82.1044,1.679,5.39,11111222 
SCCF RECON,ioos:station:SCCF:56:1,2019-05-05T05:00:00Z,26.4645,-82.1044,1.791,5.92,11111222 
SCCF RECON,ioos:station:SCCF:56:1,2019-05-05T06:00:00Z,26.4645,-82.1044,1.874,5.56,11111222 
SCCF RECON,ioos:station:SCCF:56:1,2019-05-05T07:00:00Z,26.4645,-82.1044,1.888,5.1,11111222 
SCCF RECON,ioos:station:SCCF:56:1,2019-05-05T08:00:00Z,26.4645,-82.1044,1.835,5.71,11111222 
SCCF RECON,ioos:station:SCCF:56:1,2019-05-05T09:00:00Z,26.4645,-82.1044,1.752,5.37,11111222 
SCCF RECON,ioos:station:SCCF:56:1,2019-05-05T10:00:00Z,26.4645,-82.1044,1.677,5.03,11111222 
SCCF RECON,ioos:station:SCCF:56:1,2019-05-05T11:00:00Z,26.4645,-82.1044,1.61,4.83,11111222 
SCCF RECON,ioos:station:SCCF:56:1,2019-05-05T12:00:00Z,26.4645,-82.1044,1.563,4.07,11111222 
SCCF RECON,ioos:station:SCCF:56:1,2019-05-05T13:00:00Z,26.4645,-82.1044,1.569,3.54,11111222 
SCCF RECON,ioos:station:SCCF:56:1,2019-05-05T14:00:00Z,26.4645,-82.1044,1.69,4.32,11111222 
SCCF RECON,ioos:station:SCCF:56:1,2019-05-05T15:00:00Z,26.4645,-82.1044,1.821,5.41,11111222 
SCCF RECON,ioos:station:SCCF:56:1,2019-05-05T16:00:00Z,26.4645,-82.1044,1.949,7.49,11111222 
SCCF RECON,ioos:station:SCCF:56:1,2019-05-05T17:00:00Z,26.4645,-82.1044,2.035,7.9,11111222 
SCCF RECON,ioos:station:SCCF:56:1,2019-05-05T18:00:00Z,26.4645,-82.1044,2.065,7.85,11111222 
SCCF RECON,ioos:station:SCCF:56:1,2019-05-05T19:00:00Z,26.4645,-82.1044,2.081,7.81,11111222 
SCCF RECON,ioos:station:SCCF:56:1,2019-05-05T20:00:00Z,26.4645,-82.1044,1.924,7.58,11111222 
SCCF RECON,ioos:station:SCCF:56:1,2019-05-05T21:00:00Z,26.4645,-82.1044,1.735,6.8,11111222 
SCCF RECON,ioos:station:SCCF:56:1,2019-05-05T22:00:00Z,26.4645,-82.1044,1.574,6.43,11111222 
SCCF RECON,ioos:station:SCCF:56:1,2019-05-05T23:00:00Z,26.4645,-82.1044,1.45,6.28,11111222 
SCCF RECON,ioos:station:SCCF:56:1,2019-05-06T04:00:00Z,26.4645,-82.1044,1.517,3.05,11111222 
SCCF RECON,ioos:station:SCCF:56:1,2019-05-06T05:00:00Z,26.4645,-82.1044,1.633,2.9,11111222 
SCCF RECON,ioos:station:SCCF:56:1,2019-05-06T06:00:00Z,26.4645,-82.1044,1.737,3.85,11111222 
SCCF RECON,ioos:station:SCCF:56:1,2019-05-06T07:00:00Z,26.4645,-82.1044,1.836,4.7,11111222 
SCCF RECON,ioos:station:SCCF:56:1,2019-05-06T08:00:00Z,26.4645,-82.1044,1.875,5.14,11111222 
SCCF RECON,ioos:station:SCCF:56:1,2019-05-06T09:00:00Z,26.4645,-82.1044,1.818,5.36,11111222 
SCCF RECON,ioos:station:SCCF:56:1,2019-05-06T10:00:00Z,26.4645,-82.1044,1.734,5.09,11111222 
SCCF RECON,ioos:station:SCCF:56:1,2019-05-06T11:00:00Z,26.4645,-82.1044,1.62,4.66,11111222 
SCCF RECON,ioos:station:SCCF:56:1,2019-05-06T12:00:00Z,26.4645,-82.1044,1.592,4.16,11111222 
SCCF RECON,ioos:station:SCCF:56:1,2019-05-06T13:00:00Z,26.4645,-82.1044,1.576,3.37,11111222 
SCCF RECON,ioos:station:SCCF:56:1,2019-05-06T14:00:00Z,26.4645,-82.1044,1.708,3.62,11111222 
SCCF RECON,ioos:station:SCCF:56:1,2019-05-06T15:00:00Z,26.4645,-82.1044,1.853,4.76,11111222 
SCCF RECON,ioos:station:SCCF:56:1,2019-05-06T16:00:00Z,26.4645,-82.1044,1.97,6.01,11111222 
SCCF RECON,ioos:station:SCCF:56:1,2019-05-06T17:00:00Z,26.4645,-82.1044,2.049,7.11,11111222 
SCCF RECON,ioos:station:SCCF:56:1,2019-05-06T18:00:00Z,26.4645,-82.1044,2.088,7.25,11111222 
SCCF RECON,ioos:station:SCCF:56:1,2019-05-06T19:00:00Z,26.4645,-82.1044,2.028,6.52,11111222 
SCCF RECON,ioos:station:SCCF:56:1,2019-05-06T20:00:00Z,26.4645,-82.1044,1.913,6.5,11111222 
SCCF RECON,ioos:station:SCCF:56:1,2019-05-06T21:00:00Z,26.4645,-82.1044,1.786,6.8,11111222 
SCCF RECON,ioos:station:SCCF:56:1,2019-05-06T22:00:00Z,26.4645,-82.1044,1.661,6.28,11111222 
SCCF RECON,ioos:station:SCCF:56:1,2019-05-06T23:00:00Z,26.4645,-82.1044,1.529,6.03,11111222 
SCCF RECON,ioos:station:SCCF:56:1,2019-05-07T04:00:00Z,26.4645,-82.1044,1.363,4.49,11111222 
SCCF RECON,ioos:station:SCCF:56:1,2019-05-07T05:00:00Z,26.4645,-82.1044,1.519,3.33,11111222 
SCCF RECON,ioos:station:SCCF:56:1,2019-05-07T06:00:00Z,26.4645,-82.1044,1.66,2.38,11111222 
SCCF RECON,ioos:station:SCCF:56:1,2019-05-07T07:00:00Z,26.4645,-82.1044,1.768,2.92,11111222 
SCCF RECON,ioos:station:SCCF:56:1,2019-05-07T08:00:00Z,26.4645,-82.1044,1.833,3.98,11111222 
SCCF RECON,ioos:station:SCCF:56:1,2019-05-07T09:00:00Z,26.4645,-82.1044,1.819,4.89,11111222 
SCCF RECON,ioos:station:SCCF:56:1,2019-05-07T10:00:00Z,26.4645,-82.1044,1.74,4.64,11111222 
SCCF RECON,ioos:station:SCCF:56:1,2019-05-07T11:00:00Z,26.4645,-82.1044,1.667,4.34,11111222 
SCCF RECON,ioos:station:SCCF:56:1,2019-05-07T12:00:00Z,26.4645,-82.1044,1.644,4.05,11111222 
SCCF RECON,ioos:station:SCCF:56:1,2019-05-07T13:00:00Z,26.4645,-82.1044,1.663,4.18,11111222 
SCCF RECON,ioos:station:SCCF:56:1,2019-05-07T14:00:00Z,26.4645,-82.1044,1.687,3.96,11111222 
SCCF RECON,ioos:station:SCCF:56:1,2019-05-07T15:00:00Z,26.4645,-82.1044,1.756,4.62,11111222 
SCCF RECON,ioos:station:SCCF:56:1,2019-05-07T16:00:00Z,26.4645,-82.1044,1.854,5.11,11111222 
SCCF RECON,ioos:station:SCCF:56:1,2019-05-07T17:00:00Z,26.4645,-82.1044,1.948,6.45,11111222 
SCCF RECON,ioos:station:SCCF:56:1,2019-05-07T18:00:00Z,26.4645,-82.1044,2.01,7.73,11111222 
SCCF RECON,ioos:station:SCCF:56:1,2019-05-07T19:00:00Z,26.4645,-82.1044,2.015,8.25,11111222 
SCCF RECON,ioos:station:SCCF:56:1,2019-05-07T20:00:00Z,26.4645,-82.1044,1.956,8.07,11111222 
SCCF RECON,ioos:station:SCCF:56:1,2019-05-07T21:00:00Z,26.4645,-82.1044,1.847,8.11,11111222 
SCCF RECON,ioos:station:SCCF:56:1,2019-05-07T22:00:00Z,26.4645,-82.1044,1.71,6.89,11111222 
SCCF RECON,ioos:station:SCCF:56:1,2019-05-07T23:00:00Z,26.4645,-82.1044,1.584,6.24,11111222 
SCCF RECON,ioos:station:SCCF:56:1,2019-05-08T04:00:00Z,26.4645,-82.1044,1.231,4.67,11111222 
SCCF RECON,ioos:station:SCCF:56:1,2019-05-08T05:00:00Z,26.4645,-82.1044,1.39,6.56,11111222 
SCCF RECON,ioos:station:SCCF:56:1,2019-05-08T06:00:00Z,26.4645,-82.1044,1.543,5.76,11111222 
SCCF RECON,ioos:station:SCCF:56:1,2019-05-08T07:00:00Z,26.4645,-82.1044,1.674,4.78,11111222 
SCCF RECON,ioos:station:SCCF:56:1,2019-05-08T08:00:00Z,26.4645,-82.1044,1.749,5.7,11111222 
SCCF RECON,ioos:station:SCCF:56:1,2019-05-08T09:00:00Z,26.4645,-82.1044,1.799,5.84,11111222 
SCCF RECON,ioos:station:SCCF:56:1,2019-05-08T11:00:00Z,26.4645,-82.1044,1.772,4.87,11111222 
SCCF RECON,ioos:station:SCCF:56:1,2019-05-08T12:00:00Z,26.4645,-82.1044,1.723,4.4,11111222 
SCCF RECON,ioos:station:SCCF:56:1,2019-05-08T13:00:00Z,26.4645,-82.1044,1.688,4.53,11111222 
SCCF RECON,ioos:station:SCCF:56:1,2019-05-08T14:00:00Z,26.4645,-82.1044,1.698,4.62,11111222 
SCCF RECON,ioos:station:SCCF:56:1,2019-05-08T15:00:00Z,26.4645,-82.1044,1.747,5.76,11111222 
SCCF RECON,ioos:station:SCCF:56:1,2019-05-08T16:00:00Z,26.4645,-82.1044,1.848,7.1,11111222 
SCCF RECON,ioos:station:SCCF:56:1,2019-05-08T18:00:00Z,26.4645,-82.1044,2.018,8.48,11111222 
SCCF RECON,ioos:station:SCCF:56:1,2019-05-08T19:00:00Z,26.4645,-82.1044,2.061,8.49,11111222 
SCCF RECON,ioos:station:SCCF:56:1,2019-05-08T20:00:00Z,26.4645,-82.1044,2.043,8.34,11111222 
SCCF RECON,ioos:station:SCCF:56:1,2019-05-08T21:00:00Z,26.4645,-82.1044,1.975,7.43,11111222 
SCCF RECON,ioos:station:SCCF:56:1,2019-05-08T22:00:00Z,26.4645,-82.1044,1.89,8.21,11111222 
SCCF RECON,ioos:station:SCCF:56:1,2019-05-08T23:00:00Z,26.4645,-82.1044,1.777,7.96,11111222 
SCCF RECON,ioos:station:SCCF:56:1,2019-05-09T04:00:00Z,26.4645,-82.1044,1.227,4.64,11111222 
SCCF RECON,ioos:station:SCCF:56:1,2019-05-09T05:00:00Z,26.4645,-82.1044,1.308,4.29,11111222 
SCCF RECON,ioos:station:SCCF:56:1,2019-05-09T06:00:00Z,26.4645,-82.1044,1.458,5.32,11111222 
SCCF RECON,ioos:station:SCCF:56:1,2019-05-09T07:00:00Z,26.4645,-82.1044,1.566,5.55,11111222 
SCCF RECON,ioos:station:SCCF:56:1,2019-05-09T08:00:00Z,26.4645,-82.1044,1.682,4.86,11111222 
SCCF RECON,ioos:station:SCCF:56:1,2019-05-09T09:00:00Z,26.4645,-82.1044,1.779,4.79,11111222 
SCCF RECON,ioos:station:SCCF:56:1,2019-05-09T10:00:00Z,26.4645,-82.1044,1.832,4.83,11111222 
SCCF RECON,ioos:station:SCCF:56:1,2019-05-09T11:00:00Z,26.4645,-82.1044,1.85,4.87,11111222 
SCCF RECON,ioos:station:SCCF:56:1,2019-05-09T12:00:00Z,26.4645,-82.1044,1.817,4.47,11111222 
SCCF RECON,ioos:station:SCCF:56:1,2019-05-09T13:00:00Z,26.4645,-82.1044,1.764,4.11,11111222 
SCCF RECON,ioos:station:SCCF:56:1,2019-05-09T14:00:00Z,26.4645,-82.1044,1.744,4.24,11111222 
SCCF RECON,ioos:station:SCCF:56:1,2019-05-09T15:00:00Z,26.4645,-82.1044,1.76,4.94,11111222 
SCCF RECON,ioos:station:SCCF:56:1,2019-05-09T16:00:00Z,26.4645,-82.1044,1.815,6.33,11111222 
SCCF RECON,ioos:station:SCCF:56:1,2019-05-09T17:00:00Z,26.4645,-82.1044,1.883,8.66,11111222 
SCCF RECON,ioos:station:SCCF:56:1,2019-05-09T18:00:00Z,26.4645,-82.1044,1.955,9.58,11111222 
SCCF RECON,ioos:station:SCCF:56:1,2019-05-09T19:00:00Z,26.4645,-82.1044,2.01,9.29,11111222 
SCCF RECON,ioos:station:SCCF:56:1,2019-05-09T20:00:00Z,26.4645,-82.1044,2.048,8.78,11111222 
SCCF RECON,ioos:station:SCCF:56:1,2019-05-09T21:00:00Z,26.4645,-82.1044,2.025,8.55,11111222 
SCCF RECON,ioos:station:SCCF:56:1,2019-05-09T22:00:00Z,26.4645,-82.1044,1.974,8.0,11111222 
SCCF RECON,ioos:station:SCCF:56:1,2019-05-09T23:00:00Z,26.4645,-82.1044,1.897,8.4,11111222 
SCCF RECON,ioos:station:SCCF:56:1,2019-05-10T04:00:00Z,26.4645,-82.1044,1.294,4.16,11111222 
SCCF RECON,ioos:station:SCCF:56:1,2019-05-10T05:00:00Z,26.4645,-82.1044,1.236,3.22,11111222 
SCCF RECON,ioos:station:SCCF:56:1,2019-05-10T06:00:00Z,26.4645,-82.1044,1.29,2.73,11111222 
SCCF RECON,ioos:station:SCCF:56:1,2019-05-10T07:00:00Z,26.4645,-82.1044,1.425,4.5,11111222 
SCCF RECON,ioos:station:SCCF:56:1,2019-05-10T08:00:00Z,26.4645,-82.1044,1.545,4.72,11111222 
SCCF RECON,ioos:station:SCCF:56:1,2019-05-10T09:00:00Z,26.4645,-82.1044,1.627,4.34,11111222 
SCCF RECON,ioos:station:SCCF:56:1,2019-05-10T10:00:00Z,26.4645,-82.1044,1.697,3.93,11111222 
SCCF RECON,ioos:station:SCCF:56:1,2019-05-10T11:00:00Z,26.4645,-82.1044,1.768,4.23,11111222 
SCCF RECON,ioos:station:SCCF:56:1,2019-05-10T12:00:00Z,26.4645,-82.1044,1.799,3.94,11111222 
SCCF RECON,ioos:station:SCCF:56:1,2019-05-10T13:00:00Z,26.4645,-82.1044,1.784,4.02,11111222 
SCCF RECON,ioos:station:SCCF:56:1,2019-05-10T14:00:00Z,26.4645,-82.1044,1.756,3.71,11111222 
SCCF RECON,ioos:station:SCCF:56:1,2019-05-10T15:00:00Z,26.4645,-82.1044,1.774,4.68,11111222 
SCCF RECON,ioos:station:SCCF:56:1,2019-05-10T16:00:00Z,26.4645,-82.1044,1.823,5.76,11111222 
SCCF RECON,ioos:station:SCCF:56:1,2019-05-10T17:00:00Z,26.4645,-82.1044,1.854,7.62,11111222 
SCCF RECON,ioos:station:SCCF:56:1,2019-05-10T18:00:00Z,26.4645,-82.1044,1.902,8.5,11111222 
SCCF RECON,ioos:station:SCCF:56:1,2019-05-10T19:00:00Z,26.4645,-82.1044,1.938,8.79,11111222 
SCCF RECON,ioos:station:SCCF:56:1,2019-05-10T20:00:00Z,26.4645,-82.1044,1.95,9.52,11111222 
SCCF RECON,ioos:station:SCCF:56:1,2019-05-10T21:00:00Z,26.4645,-82.1044,1.963,9.36,11111222 
SCCF RECON,ioos:station:SCCF:56:1,2019-05-10T22:00:00Z,26.4645,-82.1044,1.976,9.35,11111222 
SCCF RECON,ioos:station:SCCF:56:1,2019-05-10T23:00:00Z,26.4645,-82.1044,1.95,9.15,11111222 
SCCF RECON,ioos:station:SCCF:56:1,2019-05-11T04:00:00Z,26.4645,-82.1044,1.424,5.06,11111222 
SCCF RECON,ioos:station:SCCF:56:1,2019-05-11T05:00:00Z,26.4645,-82.1044,1.296,4.38,11111222 
SCCF RECON,ioos:station:SCCF:56:1,2019-05-11T06:00:00Z,26.4645,-82.1044,1.239,3.34,11111222 
SCCF RECON,ioos:station:SCCF:56:1,2019-05-11T07:00:00Z,26.4645,-82.1044,1.293,3.26,11111222 
SCCF RECON,ioos:station:SCCF:56:1,2019-05-11T08:00:00Z,26.4645,-82.1044,1.42,4.3,11111222 
SCCF RECON,ioos:station:SCCF:56:1,2019-05-11T09:00:00Z,26.4645,-82.1044,1.541,4.62,11111222 
SCCF RECON,ioos:station:SCCF:56:1,2019-05-11T10:00:00Z,26.4645,-82.1044,1.667,4.46,11111222 
SCCF RECON,ioos:station:SCCF:56:1,2019-05-11T11:00:00Z,26.4645,-82.1044,1.76,4.39,11111222 
SCCF RECON,ioos:station:SCCF:56:1,2019-05-11T12:00:00Z,26.4645,-82.1044,1.823,4.45,11111222 
SCCF RECON,ioos:station:SCCF:56:1,2019-05-11T13:00:00Z,26.4645,-82.1044,1.823,4.77,11111222 
SCCF RECON,ioos:station:SCCF:56:1,2019-05-13T14:00:00Z,26.4645,-82.1044,1.963,3.69,11111222 
SCCF RECON,ioos:station:SCCF:56:1,2019-05-13T15:00:00Z,26.4645,-82.1044,1.972,4.9,11111222 
SCCF RECON,ioos:station:SCCF:56:1,2019-05-13T16:00:00Z,26.4645,-82.1044,1.908,5.0,11111222 
SCCF RECON,ioos:station:SCCF:56:1,2019-05-13T17:00:00Z,26.4645,-82.1044,1.813,5.37,11111222 
SCCF RECON,ioos:station:SCCF:56:1,2019-05-13T18:00:00Z,26.4645,-82.1044,1.737,5.48,11111222 
SCCF RECON,ioos:station:SCCF:56:1,2019-05-13T19:00:00Z,26.4645,-82.1044,1.672,5.48,11111222 
SCCF RECON,ioos:station:SCCF:56:1,2019-05-13T20:00:00Z,26.4645,-82.1044,1.676,6.09,11111222 
SCCF RECON,ioos:station:SCCF:56:1,2019-05-13T21:00:00Z,26.4645,-82.1044,1.674,6.33,11111222 
SCCF RECON,ioos:station:SCCF:56:1,2019-05-13T22:00:00Z,26.4645,-82.1044,1.717,6.38,11111222 
SCCF RECON,ioos:station:SCCF:56:1,2019-05-13T23:00:00Z,26.4645,-82.1044,1.763,9.11,11111222 
SCCF RECON,ioos:station:SCCF:56:1,2019-05-14T04:00:00Z,26.4645,-82.1044,1.89,6.93,11111222 
SCCF RECON,ioos:station:SCCF:56:1,2019-05-14T06:00:00Z,26.4645,-82.1044,1.608,5.02,11111222 
SCCF RECON,ioos:station:SCCF:56:1,2019-05-14T07:00:00Z,26.4645,-82.1044,1.484,3.76,11111222 
SCCF RECON,ioos:station:SCCF:56:1,2019-05-14T08:00:00Z,26.4645,-82.1044,1.396,3.0,11111222 
SCCF RECON,ioos:station:SCCF:56:1,2019-05-14T09:00:00Z,26.4645,-82.1044,1.382,2.34,11111222 
SCCF RECON,ioos:station:SCCF:56:1,2019-05-14T10:00:00Z,26.4645,-82.1044,1.472,2.32,11111222 
SCCF RECON,ioos:station:SCCF:56:1,2019-05-14T12:00:00Z,26.4645,-82.1044,1.745,1.94,11111222 
SCCF RECON,ioos:station:SCCF:56:1,2019-05-14T13:00:00Z,26.4645,-82.1044,1.837,2.56,11111222 
SCCF RECON,ioos:station:SCCF:56:1,2019-05-14T14:00:00Z,26.4645,-82.1044,1.945,3.66,11111222 
SCCF RECON,ioos:station:SCCF:56:1,2019-05-14T15:00:00Z,26.4645,-82.1044,2.009,4.58,11111222 
SCCF RECON,ioos:station:SCCF:56:1,2019-05-14T16:00:00Z,26.4645,-82.1044,1.99,5.29,11111222 
SCCF RECON,ioos:station:SCCF:56:1,2019-05-14T17:00:00Z,26.4645,-82.1044,1.887,4.8,11111222 
SCCF RECON,ioos:station:SCCF:56:1,2019-05-14T18:00:00Z,26.4645,-82.1044,1.759,4.82,11111222 
SCCF RECON,ioos:station:SCCF:56:1,2019-05-14T19:00:00Z,26.4645,-82.1044,1.685,4.39,11111222 
SCCF RECON,ioos:station:SCCF:56:1,2019-05-14T20:00:00Z,26.4645,-82.1044,1.581,4.23,11111222 
SCCF RECON,ioos:station:SCCF:56:1,2019-05-14T21:00:00Z,26.4645,-82.1044,1.521,3.9,11111222 
SCCF RECON,ioos:station:SCCF:56:1,2019-05-14T22:00:00Z,26.4645,-82.1044,1.516,4.4,11111222 
SCCF RECON,ioos:station:SCCF:56:1,2019-05-14T23:00:00Z,26.4645,-82.1044,1.627,4.94,11111222 
SCCF RECON,ioos:station:SCCF:56:1,2019-05-15T04:00:00Z,26.4645,-82.1044,1.946,5.32,11111222 
SCCF RECON,ioos:station:SCCF:56:1,2019-05-15T05:00:00Z,26.4645,-82.1044,1.835,4.44,11111222 
SCCF RECON,ioos:station:SCCF:56:1,2019-05-15T06:00:00Z,26.4645,-82.1044,1.703,4.74,11111222 
SCCF RECON,ioos:station:SCCF:56:1,2019-05-15T07:00:00Z,26.4645,-82.1044,1.595,4.13,11111222 
SCCF RECON,ioos:station:SCCF:56:1,2019-05-15T08:00:00Z,26.4645,-82.1044,1.535,3.52,11111222 
SCCF RECON,ioos:station:SCCF:56:1,2019-05-15T09:00:00Z,26.4645,-82.1044,1.444,2.62,11111222 
SCCF RECON,ioos:station:SCCF:56:1,2019-05-15T10:00:00Z,26.4645,-82.1044,1.411,1.93,11111222 
SCCF RECON,ioos:station:SCCF:56:1,2019-05-15T11:00:00Z,26.4645,-82.1044,1.479,1.66,11111222 
SCCF RECON,ioos:station:SCCF:56:1,2019-05-15T12:00:00Z,26.4645,-82.1044,1.663,1.78,11111222 
SCCF RECON,ioos:station:SCCF:56:1,2019-05-15T13:00:00Z,26.4645,-82.1044,1.807,2.27,11111222 
SCCF RECON,ioos:station:SCCF:56:1,2019-05-15T14:00:00Z,26.4645,-82.1044,1.94,2.48,11111222 
SCCF RECON,ioos:station:SCCF:56:1,2019-05-15T15:00:00Z,26.4645,-82.1044,2.008,2.75,11111222 
SCCF RECON,ioos:station:SCCF:56:1,2019-05-15T16:00:00Z,26.4645,-82.1044,2.041,3.41,11111222 
SCCF RECON,ioos:station:SCCF:56:1,2019-05-15T17:00:00Z,26.4645,-82.1044,1.968,3.42,11111222 
SCCF RECON,ioos:station:SCCF:56:1,2019-05-15T18:00:00Z,26.4645,-82.1044,1.829,3.78,11111222 
SCCF RECON,ioos:station:SCCF:56:1,2019-05-15T19:00:00Z,26.4645,-82.1044,1.703,3.88,11111222 
SCCF RECON,ioos:station:SCCF:56:1,2019-05-15T20:00:00Z,26.4645,-82.1044,1.58,3.82,11111222 
SCCF RECON,ioos:station:SCCF:56:1,2019-05-15T21:00:00Z,26.4645,-82.1044,1.485,4.52,11111222 
SCCF RECON,ioos:station:SCCF:56:1,2019-05-15T22:00:00Z,26.4645,-82.1044,1.415,5.09,11111222 
SCCF RECON,ioos:station:SCCF:56:1,2019-05-15T23:00:00Z,26.4645,-82.1044,1.406,6.13,11111222 
SCCF RECON,ioos:station:SCCF:56:1,2019-05-16T04:00:00Z,26.4645,-82.1044,1.95,7.02,11111222 